Regional Weather Roundup
Issued by NWS Newport/Morehead, NC

Current Version | Previous Version | Graphics & Text | Print | Product List | Glossary Off
Versions: 1 2 3 4 5 6 7 8 9 10 11 12 13 14 15 16 17 18 19 20 21 22 23 24 25 26 27 28 29 30 31 32 33 34 35 36 37 38 39 40 41 42 43 44 45 46 47 48 49 50

000
ASUS42 KMHX 290725
RWRMHX
WEATHER ROUNDUP FOR EASTERN NORTH CAROLINA
NATIONAL WEATHER SERVICE NEWPORT/MOREHEAD CITY NC
300 AM EDT MON MAY 29 2017

NOTE: "FAIR" INDICATES FEW OR NO CLOUDS BELOW 12,000 FEET
WITH NO SIGNIFICANT WEATHER AND/OR OBSTRUCTIONS TO VISIBILITY

NCZ015>017-031-032-045>047-102-103-290800-
NORTH COAST

CITY           SKY/WX    TMP DP  RH WIND       PRES   REMARKS
EDENTON        PTCLDY    72  70  94 CALM      29.80S
ELIZABETH CITY FOG       71  71 100 S3        29.79S VSB 1/4
KITTY HAWK     CLOUDY    67  67 100 CALM      29.78S FOG
MANTEO         CLOUDY    69  68  97 CALM      29.80S

$$

NCZ045>047-081-094-103-104-290800-
CENTRAL COAST

CITY           SKY/WX    TMP DP  RH WIND       PRES   REMARKS
FRISCO         MOCLDY    76  73  91 W7        29.79S

$$

NCZ095-097-098-100-101-290800-
SOUTHERN COAST

CITY           SKY/WX    TMP DP  RH WIND       PRES   REMARKS
BEAUFORT       PTCLDY    75  71  87 SW12G21   29.82S
CEDAR ISLAND   NOT AVBL
JACKSONVILLE   CLEAR     70  70 100 SW10      29.83R
PINEY ISLAND   MOSUNNY  N/A N/A N/A SW9       29.81R
WILMINGTON     PTCLDY    70  68  93 W7        29.86R


$$

NCZ011>013-027>030-043-044-078>080-089-090>093-098-290800-
COASTAL PLAIN

CITY           SKY/WX    TMP DP  RH WIND       PRES   REMARKS
AHOSKIE        NOT AVBL
CLINTON        CLEAR     72  72 100 W5        29.85S
ELIZABETHTOWN  CLEAR     71  71 100 SW5       29.86S
GOLDSBORO      CLEAR     72  72 100 W6        29.82R
GREENVILLE     CLEAR     73  70  88 CALM      29.84S
HAVELOCK       NOT AVBL
KENANSVILLE    CLEAR     72  70  94 W8        29.84S
KINSTON        CLEAR     73  70  90 W3        29.83S
NEW BERN       CLEAR     74  71  91 W7        29.83R
RICHLANDS      CLEAR     71  69  93 SW7       29.84R
ROCKY MOUNT    CLEAR     72  68  87 W3        29.82S
WASHINGTON     PTCLDY    73  69  87 W3        29.81S
WHITEVILLE     CLEAR     70  68  93 CALM      29.86S

$$

AMZ130-135-150-152-154-156-158-170-250-252-270-ANZ085-086-088-633-658-670-290800-
MARINE OBSERVATIONS

STATION/POSITION TIME  TEMP    WIND        PRES    WAVE   SWELL
                       AIR SEA DIR/SP/G            HT/PER HT/PER
                 (UTC) (F)     (DEG/KT/KT) (MB)    (FT/S) (FT/S)
CHESAPEAKE LIGHT NOT AVBL
64 E VA BEACH    0650   63 64  250/ 10/ 10 1009.0    3/ 7   3/ 7
DUCK             0700   67 68   CALM  /  1 1008.2
2 E DUCK         0700      68                N/A     2/ 7
OREGON INLET     0700   67 72   50/  3/  5 1008.6
13E OREGON INLT  0648      68                N/A     3/ 7   3/ 7
HATTERAS CG      0700   75 75  250/  7/ 10 1008.8
DIAMOND BUOY     0650   76 76  260/ 14/ 17 1009.0    5/ 6   2/ 9
CAPE LOOKOUT     0700   74     240/  9/ 13 1009.6
BEAUFORT LAB     0700   74 74  240/  6/ 12 1009.3
30 SE NEW RVR IN 0608   76 76  250/ 17/ 21 1010.3
30 SE NEW RVR IN 0713      76                N/A     4/ 6
27 SE WRIGHTSVLE 0608   76 76  230/ 14/ 19 1010.2
5 SE WRIGHTSVLE  0608   75 75  250/ 10/ 16 1010.6
225 S CAPE HAT   0650   77 77  200/ 12/ 14 1013.6    4/ 6   2/ 6
41 SE CHARLESTON 0700   78 76  230/ 16/ 19 1012.0

$$




USA.gov is the U.S. government's official web portal to all federal, state and local government web resources and services.